Date,TemperatureHighF,TemperatureAvgF,TemperatureLowF,DewpointHighF,DewpointAvgF,DewpointLowF,HumidityHigh,HumidityAvg,HumidityLow,PressureMaxIn,PressureMinIn,WindSpeedMaxMPH,WindSpeedAvgMPH,GustSpeedMaxMPH,PrecipitationSumIn
2013-1-1,38.4,30.2,17.2,27.0,16.4,4.0,80,58,40,29.83,29.59,9,2,20,0.09
2013-1-2,29.3,17.8,7.4,18.0,6.8,-5.0,84,63,51,30.03,29.80,8,2,17,0.00
2013-1-3,25.2,12.6,0.7,8.0,0.3,-7.0,81,60,33,30.05,29.89,5,0,9,0.00
2013-1-4,38.5,25.7,8.4,23.0,16.5,5.0,93,70,52,29.88,29.68,11,2,15,0.01
2013-1-5,41.9,32.7,19.3,25.0,20.5,15.0,87,62,42,30.15,29.72,7,1,18,0.06
2013-1-6,43.1,31.1,19.6,29.0,24.8,16.0,90,79,56,30.12,29.83,6,1,14,0.03
2013-1-7,40.2,27.8,16.5,26.0,19.8,13.0,93,74,44,30.29,29.85,6,1,15,0.00
2013-1-8,46.4,27.4,13.2,28.0,20.1,10.0,95,77,45,30.26,30.15,9,1,15,0.00
2013-1-9,43.8,31.1,18.9,34.0,25.3,16.0,92,80,54,30.31,29.87,6,1,13,0.00
2013-1-10,46.9,40.4,29.2,29.0,25.3,23.0,80,56,43,30.44,29.91,13,3,21,0.00
2013-1-11,39.7,31.7,22.7,33.0,27.1,20.0,95,84,62,30.43,30.12,4,0,5,0.11
2013-1-12,41.7,36.9,34.1,39.0,35.7,33.0,97,95,90,30.11,30.02,2,0,3,0.03
2013-1-13,46.9,40.8,35.7,46.0,40.1,35.0,98,97,93,30.05,29.86,6,0,10,0.00
2013-1-14,59.5,46.7,39.6,51.0,38.8,27.0,98,77,46,30.15,29.73,8,1,17,0.00
2013-1-15,44.3,35.7,29.1,30.0,26.8,25.0,88,71,50,30.22,30.13,7,1,10,0.00
2013-1-16,34.5,32.3,30.1,32.0,30.1,27.0,95,91,85,30.15,29.71,3,0,5,0.02
2013-1-17,42.7,31.6,22.5,37.0,24.4,12.0,97,77,50,30.00,29.71,6,1,14,0.16
2013-1-18,28.7,21.2,15.0,13.0,2.8,-2.0,66,46,31,30.33,29.97,8,2,22,0.00
2013-1-19,46.1,33.8,20.1,27.0,20.4,8.0,86,60,42,30.26,29.75,13,2,19,0.06
2013-1-20,53.5,39.5,28.7,32.0,24.1,11.0,87,56,31,29.82,29.41,17,4,27,0.00
2013-1-21,29.0,24.9,19.0,21.0,10.2,2.0,89,56,38,29.98,29.69,7,1,12,0.00
2013-1-22,28.7,20.5,11.8,20.0,9.4,-1.0,90,65,35,29.97,29.66,11,2,18,0.00
2013-1-23,19.0,11.1,4.4,1.0,-7.6,-11.0,64,44,28,30.04,29.96,9,2,16,0.00
2013-1-24,20.6,10.9,2.2,-4.0,-8.8,-11.0,56,42,30,30.14,29.97,9,2,22,0.00
2013-1-25,25.0,16.5,8.7,11.0,-3.9,-9.0,73,41,27,30.22,29.97,8,2,15,0.00
2013-1-26,26.6,18.1,10.5,12.0,2.6,-6.0,80,54,29,30.13,29.92,9,2,14,0.00
2013-1-27,33.6,20.4,9.9,6.0,2.6,-2.0,75,49,27,30.38,30.12,10,1,18,0.00
2013-1-28,30.7,23.3,15.0,23.0,13.6,4.0,89,68,41,30.36,29.93,4,0,8,0.00
2013-1-29,36.3,30.5,24.2,32.0,26.7,21.0,94,86,74,30.10,29.94,5,1,7,0.11
2013-1-30,57.1,43.0,33.2,55.0,41.7,32.0,98,95,92,30.05,29.32,8,1,16,0.16
2013-1-31,60.9,46.9,30.4,58.0,36.1,15.0,97,69,37,29.46,28.82,18,6,35,1.02
2013-2-1,37.2,29.0,22.8,17.0,10.4,3.0,62,47,32,29.97,29.47,14,3,22,0.00
2013-2-2,33.3,25.2,15.4,13.0,7.3,4.0,68,48,34,30.14,29.94,7,2,21,0.00
2013-2-3,30.8,26.2,19.4,23.0,21.0,15.0,91,81,63,29.95,29.62,7,1,12,0.01
2013-2-4,33.6,25.2,19.6,21.0,10.6,4.0,86,56,35,29.82,29.61,16,2,21,0.00
2013-2-5,35.2,25.7,17.7,21.0,11.5,5.0,81,56,40,29.92,29.83,4,1,7,0.00
2013-2-6,42.8,30.7,23.6,29.0,18.6,6.0,89,64,40,30.20,29.82,8,2,14,0.00
2013-2-7,33.0,24.1,13.9,7.0,2.8,-2.0,73,42,27,30.44,30.20,6,1,11,0.00
2013-2-8,25.6,22.4,18.6,20.0,15.0,1.0,89,75,35,30.40,29.63,18,5,24,0.00
2013-2-9,24.2,19.7,15.3,19.0,13.0,3.0,91,76,58,30.11,29.56,15,6,29,0.00
2013-2-10,44.0,24.2,8.9,16.0,7.1,0.0,83,52,21,30.29,30.12,8,2,14,0.07
2013-2-11,32.9,25.2,12.6,32.0,22.2,9.0,95,88,77,30.24,29.52,4,1,5,0.00
2013-2-12,48.3,38.3,31.3,33.0,30.1,27.0,96,74,48,29.75,29.49,15,3,20,0.06
2013-2-13,49.0,35.6,25.6,28.0,24.6,22.0,87,67,41,29.75,29.62,6,1,12,0.00
2013-2-14,50.1,34.5,22.8,27.0,23.7,20.0,91,68,34,29.88,29.61,8,1,11,0.00
2013-2-15,57.5,36.9,21.1,33.0,27.2,19.0,96,72,36,29.88,29.77,10,2,17,0.00
2013-2-16,41.6,35.5,28.8,34.0,26.8,17.0,93,72,55,29.86,29.64,8,2,14,0.04
2013-2-17,29.3,22.8,16.7,18.0,9.1,2.0,82,57,42,29.64,29.30,12,5,29,0.00
2013-2-18,35.7,23.7,14.4,6.0,1.9,-2.0,56,41,23,30.04,29.59,11,3,21,0.05
2013-2-19,46.7,34.2,19.0,39.0,22.7,5.0,95,65,35,30.07,29.47,5,1,12,0.18
2013-2-20,37.7,33.2,27.2,36.0,21.1,13.0,97,63,41,29.66,29.42,10,3,23,0.00
2013-2-21,37.9,28.8,23.9,18.0,14.4,10.0,69,56,39,30.10,29.66,10,3,21,0.00
2013-2-22,45.6,33.0,19.3,26.0,20.8,16.0,92,63,36,30.30,30.12,10,2,13,0.00
2013-2-23,38.9,34.6,29.6,33.0,29.4,24.0,94,82,70,30.23,29.84,4,1,9,0.02
2013-2-24,37.0,34.7,32.8,35.0,33.1,31.0,95,93,89,29.83,29.62,7,2,10,0.14
2013-2-25,40.8,35.0,30.9,36.0,32.6,29.0,96,91,79,30.14,29.80,3,0,4,0.05
2013-2-26,45.3,36.1,30.2,37.0,31.3,29.0,96,84,61,30.24,30.08,3,0,7,0.00
2013-2-27,41.4,37.0,33.2,40.0,35.0,30.0,96,92,83,30.07,29.50,12,4,20,0.21
2013-2-28,47.9,39.3,33.8,38.0,34.9,33.0,96,85,68,29.54,29.43,4,1,10,0.00
2013-3-1,41.7,37.4,29.7,35.0,30.6,28.0,96,77,63,29.58,29.43,10,1,11,0.00
2013-3-2,46.6,37.8,30.1,33.0,28.3,26.0,84,69,57,29.57,29.52,8,2,12,0.00
2013-3-3,43.1,36.4,31.6,33.0,28.6,26.0,85,74,64,29.55,29.46,10,2,12,0.00
2013-3-4,42.2,34.8,31.1,30.0,25.2,22.0,82,69,51,29.65,29.49,11,3,17,0.00
2013-3-5,51.7,38.2,30.6,34.0,27.9,23.0,91,68,45,29.98,29.66,8,2,12,0.00
2013-3-6,38.6,36.2,33.0,35.0,33.4,30.0,94,89,80,30.05,29.96,15,5,19,0.02
2013-3-7,37.0,33.9,31.9,32.0,29.9,27.0,94,85,71,30.03,29.92,13,6,23,0.05
2013-3-8,43.0,34.9,29.3,32.0,29.3,25.0,93,81,56,30.07,29.88,12,4,17,0.35
2013-3-9,58.2,37.4,22.2,30.0,24.9,20.0,92,67,24,30.26,30.07,9,1,11,0.28
2013-3-10,54.6,36.7,21.0,34.0,27.8,19.0,94,73,42,30.33,30.20,6,1,8,0.00
2013-3-11,53.4,41.2,30.5,39.0,33.4,29.0,95,76,47,30.21,30.03,7,2,12,0.00
2013-3-12,55.1,48.0,37.9,52.0,46.3,36.0,97,94,83,30.04,29.59,6,2,12,0.61
2013-3-13,56.9,45.2,33.4,51.0,31.8,22.0,96,63,32,29.67,29.59,5,1,13,0.00
2013-3-14,38.4,32.6,23.5,25.0,16.7,8.0,71,53,39,29.74,29.60,14,3,18,0.00
2013-3-15,45.5,31.2,20.1,30.0,14.4,5.0,80,52,23,29.77,29.52,12,2,19,0.00
2013-3-16,43.6,34.4,26.7,27.0,15.8,10.0,74,49,28,29.79,29.57,8,2,13,0.00
2013-3-17,42.4,30.6,20.4,18.0,11.8,3.0,85,50,24,30.22,29.79,8,2,20,0.00
2013-3-18,43.4,30.2,16.0,27.0,9.3,3.0,87,46,20,30.37,30.14,5,1,11,0.00
2013-3-19,36.4,32.8,28.4,34.0,30.5,25.0,93,91,87,30.14,29.57,14,4,19,0.25
2013-3-20,41.7,31.8,25.5,26.0,23.3,20.0,93,73,47,29.70,29.59,17,3,22,0.29
2013-3-21,45.8,31.7,18.6,27.0,20.7,16.0,92,68,33,29.70,29.50,4,1,8,0.03
2013-3-22,46.6,35.0,26.0,25.0,20.9,17.0,89,59,34,29.62,29.51,10,2,16,0.00
2013-3-23,46.4,36.1,23.2,24.0,20.8,19.0,84,56,36,29.67,29.53,13,3,20,0.00
2013-3-24,50.3,40.4,33.0,28.0,24.9,22.0,75,55,40,29.71,29.63,11,3,21,0.00
2013-3-25,48.8,37.8,28.6,33.0,28.4,24.0,85,70,53,29.68,29.43,12,3,18,0.00
2013-3-26,55.7,43.4,34.3,31.0,25.7,20.0,75,53,27,29.68,29.46,6,2,14,0.00
2013-3-27,59.1,42.5,26.2,34.0,26.0,22.0,89,56,31,29.78,29.64,14,3,17,0.00
2013-3-28,54.0,44.1,35.0,37.0,33.7,30.0,94,69,43,29.91,29.78,11,2,14,0.00
2013-3-29,61.7,44.7,30.7,37.0,32.8,28.0,93,66,34,29.95,29.87,9,2,13,0.00
2013-3-30,63.1,46.7,32.6,34.0,26.0,17.0,91,52,18,29.99,29.89,9,2,15,0.00
2013-3-31,63.5,44.4,26.2,41.0,27.0,22.0,88,57,21,30.02,29.65,13,2,19,0.01
2013-4-1,64.7,47.5,35.1,45.0,35.9,12.0,95,68,33,29.67,29.38,15,3,21,0.04
2013-4-2,41.9,35.2,28.5,17.0,13.1,10.0,54,41,28,29.81,29.68,24,4,27,0.00
2013-4-3,51.5,38.6,29.6,16.0,12.1,7.0,51,36,18,30.05,29.80,15,3,24,0.01
2013-4-4,60.6,44.2,29.9,23.0,16.8,12.0,57,36,17,30.19,29.91,13,2,15,0.00
2013-4-5,67.3,48.8,38.4,30.0,25.6,19.0,70,45,16,29.91,29.53,14,3,18,0.00
2013-4-6,51.1,40.2,29.6,23.0,13.2,5.0,60,36,17,30.23,29.78,15,3,20,0.00
2013-4-7,60.3,43.1,25.5,39.0,26.9,17.0,81,56,24,30.23,29.87,14,3,22,4.68
2013-4-8,70.3,52.5,37.1,42.0,37.6,33.0,96,62,27,29.98,29.84,11,2,17,0.00
2013-4-9,73.9,57.5,45.9,53.0,44.3,39.0,93,64,36,29.96,29.75,12,2,18,0.04
2013-4-10,62.2,53.0,46.4,52.0,47.7,43.0,94,83,65,29.90,29.75,8,1,10,0.64
2013-4-11,54.4,47.9,41.6,49.0,38.7,27.0,94,73,42,30.04,29.74,7,3,14,0.02
2013-4-12,41.8,38.3,36.5,36.0,34.2,29.0,94,85,61,30.08,29.73,11,4,20,0.10
2013-4-13,55.4,44.8,36.3,41.0,37.6,35.0,95,78,49,29.83,29.69,8,1,12,0.02
2013-4-14,58.5,47.1,36.3,40.0,33.8,28.0,92,63,37,30.11,29.81,8,2,16,0.00
2013-4-15,65.7,46.3,30.1,37.0,33.3,28.0,93,65,31,30.28,30.12,6,1,11,0.00
2013-4-16,71.0,53.9,37.4,52.0,42.8,35.0,92,69,39,30.29,29.93,13,4,24,0.01
2013-4-17,71.2,59.8,44.6,53.0,37.8,29.0,81,48,24,30.23,29.93,12,4,18,0.00
2013-4-18,69.2,52.6,34.4,43.0,34.1,28.0,89,54,29,30.34,30.04,11,2,17,0.00
2013-4-19,77.5,64.6,52.9,63.0,56.5,43.0,94,76,54,30.04,29.50,13,4,21,0.00
2013-4-20,68.1,54.1,43.8,64.0,40.0,23.0,95,63,35,30.11,29.48,11,3,22,0.40
2013-4-21,58.0,45.5,31.7,30.0,23.5,15.0,77,45,24,30.58,30.13,11,3,18,0.00
2013-4-22,59.1,44.3,31.0,34.0,30.3,24.0,91,63,29,30.66,30.51,12,3,18,0.00
2013-4-23,42.6,40.2,35.2,41.0,36.8,32.0,94,88,80,30.51,30.04,9,4,15,0.00
2013-4-24,81.6,60.9,42.2,55.0,45.1,37.0,94,62,22,30.03,29.65,10,3,16,0.00
2013-4-25,68.7,57.3,42.5,52.0,37.0,25.0,92,52,23,30.16,29.69,12,3,21,0.07
2013-4-26,68.7,50.9,33.3,41.0,34.6,30.0,92,58,29,30.32,30.17,9,2,15,0.00
2013-4-27,72.2,53.9,35.3,41.0,36.3,33.0,92,57,25,30.32,30.16,6,1,9,0.00
2013-4-28,77.1,57.2,37.6,47.0,37.8,33.0,92,54,24,30.23,30.09,6,2,13,0.01
2013-4-29,75.3,59.9,44.2,48.0,38.1,26.0,80,47,29,30.15,30.05,11,2,12,0.00
2013-4-30,77.5,61.4,46.3,40.0,31.1,25.0,72,35,17,30.25,30.14,8,1,10,0.09
2013-5-1,79.1,57.9,36.8,41.0,35.9,33.0,93,50,20,30.36,30.25,7,1,11,0.30
2013-5-2,86.7,57.4,40.2,50.0,40.7,35.0,93,59,19,30.39,30.22,17,2,19,0.22
2013-5-3,69.5,54.4,40.0,46.0,42.2,37.0,91,67,42,30.43,30.27,10,2,15,0.21
2013-5-4,70.0,54.1,39.7,48.0,39.4,28.0,96,63,23,30.27,30.18,8,2,17,0.29
2013-5-5,73.5,52.5,34.7,43.0,38.7,33.0,96,65,32,30.24,30.13,6,1,12,0.29
2013-5-6,79.0,55.9,36.1,50.0,42.1,34.0,96,67,23,30.18,30.01,5,1,9,0.28
2013-5-7,86.9,65.5,43.1,58.0,50.7,41.0,96,65,27,30.06,29.95,8,2,13,0.28
2013-5-8,77.4,64.8,52.2,64.0,58.2,51.0,96,80,54,30.09,29.93,6,2,16,0.18
2013-5-9,69.9,61.2,56.6,63.0,58.9,56.0,96,92,74,29.93,29.77,4,1,10,0.42
2013-5-10,84.3,67.8,56.0,62.0,57.7,54.0,98,74,39,29.84,29.76,7,1,10,0.00
2013-5-11,70.3,64.3,59.4,63.0,60.2,56.0,96,86,76,29.78,29.58,11,2,16,0.12
2013-5-12,74.0,61.7,48.4,61.0,50.4,29.0,97,70,33,29.68,29.45,7,2,16,0.00
2013-5-13,61.2,51.0,40.8,37.0,30.6,27.0,73,47,31,29.92,29.69,8,2,17,0.00
2013-5-14,62.9,50.0,35.9,38.0,33.7,28.0,93,58,31,29.95,29.87,10,2,16,0.00
2013-5-15,70.0,52.4,33.8,52.0,40.1,32.0,95,69,25,29.95,29.56,13,2,16,0.00
2013-5-16,83.6,66.8,43.9,53.0,41.6,31.0,97,50,19,29.70,29.51,13,3,22,0.00
2013-5-17,72.4,60.9,47.6,44.0,41.4,36.0,81,51,31,30.10,29.71,15,3,18,0.00
2013-5-18,78.8,60.1,40.6,50.0,43.2,37.0,94,60,22,30.20,30.10,4,1,11,0.65
2013-5-19,74.6,59.2,50.7,57.0,52.4,48.0,96,80,46,30.24,30.10,6,1,9,0.94
2013-5-20,84.4,68.4,56.3,66.0,61.2,55.0,98,80,51,30.09,29.80,5,1,10,0.92
2013-5-21,77.9,62.3,51.6,68.0,58.2,49.0,97,87,66,29.93,29.77,10,3,15,0.71
2013-5-22,66.6,56.9,51.4,61.0,54.4,50.0,97,92,81,29.96,29.77,7,1,11,1.56
2013-5-23,76.2,63.3,54.1,71.0,61.4,53.0,98,94,78,29.82,29.67,13,2,14,0.76
2013-5-24,73.3,63.3,49.6,68.0,60.2,48.0,98,90,70,29.73,29.52,8,2,16,1.63
2013-5-25,52.9,48.2,41.9,51.0,46.1,38.0,96,92,85,29.72,29.62,9,3,16,0.08
2013-5-26,59.2,49.8,40.8,46.0,40.4,38.0,92,72,52,29.98,29.61,10,3,20,0.01
2013-5-27,75.1,57.7,37.5,47.0,40.7,36.0,97,60,25,30.07,29.96,9,1,16,0.00
2013-5-28,79.3,61.4,42.1,52.0,45.8,40.0,95,62,27,30.14,30.04,5,1,10,0.00
2013-5-29,69.0,62.3,53.6,65.0,59.9,50.0,97,92,84,30.07,29.87,5,0,6,0.35
2013-5-30,91.4,75.5,60.0,70.0,65.0,59.0,99,74,40,29.96,29.88,6,1,13,0.28
2013-5-31,98.4,80.3,61.5,74.0,66.0,60.0,97,67,33,29.97,29.80,10,2,13,0.57
2013-6-1,97.3,81.5,66.2,71.0,66.7,58.0,95,66,27,29.84,29.71,9,2,14,0.20
2013-6-2,94.7,80.2,68.7,73.0,68.1,63.0,95,70,36,29.74,29.56,15,3,22,0.06
2013-6-3,83.4,71.0,59.6,69.0,62.3,47.0,97,77,45,29.72,29.63,8,2,21,0.22
2013-6-4,73.6,63.7,52.8,50.0,45.8,40.0,76,54,38,29.98,29.71,11,2,15,0.00
2013-6-5,78.8,65.2,48.0,54.0,48.9,43.0,95,60,31,30.08,29.97,5,1,10,0.00
2013-6-6,79.4,66.8,54.1,58.0,54.1,51.0,92,66,39,30.08,29.98,5,1,13,0.01
2013-6-7,60.0,56.7,52.8,56.0,54.4,52.0,96,92,86,30.00,29.74,6,2,11,0.55
2013-6-8,79.8,64.8,53.2,64.0,58.3,52.0,97,81,56,29.88,29.55,8,2,13,0.75
2013-6-9,83.7,68.7,54.4,61.0,57.0,53.0,98,70,39,30.05,29.89,8,1,11,0.03
2013-6-10,73.8,63.5,54.1,61.0,57.8,53.0,95,83,63,30.09,29.91,5,1,7,0.01
2013-6-11,63.0,58.9,56.0,58.0,56.7,54.0,96,92,83,29.91,29.48,7,2,10,0.02
2013-6-12,72.8,64.0,56.5,59.0,56.0,54.0,97,77,56,29.70,29.45,15,2,20,0.01
2013-6-13,69.6,58.9,50.4,60.0,55.1,49.0,96,88,67,29.70,29.60,6,0,10,0.02
2013-6-14,77.7,63.3,54.4,61.0,55.6,51.0,97,79,41,29.66,29.55,8,1,11,0.02
2013-6-15,82.2,67.8,51.2,56.0,50.4,43.0,97,60,25,29.81,29.67,8,1,14,0.01
2013-6-16,79.3,66.3,52.5,62.0,56.2,51.0,95,72,43,29.82,29.58,7,1,12,0.02
2013-6-17,88.5,70.2,56.9,66.0,60.9,55.0,97,76,39,29.79,29.65,13,2,15,0.02
2013-6-18,73.5,63.2,57.5,64.0,60.1,56.0,97,90,70,29.84,29.77,7,1,10,0.03
2013-6-19,78.7,66.6,55.0,58.0,53.3,43.0,97,67,34,30.04,29.81,8,2,12,0.03
2013-6-20,84.1,67.2,48.7,59.0,52.4,47.0,96,64,29,30.15,30.04,5,1,13,0.02
2013-6-21,88.1,71.0,57.1,65.0,57.9,50.0,94,68,27,30.12,30.06,6,1,10,0.03
2013-6-22,88.1,73.7,59.7,69.0,62.6,58.0,97,71,44,30.09,29.97,8,2,15,0.03
2013-6-23,94.5,78.9,66.3,74.0,67.5,61.0,88,70,46,30.02,29.84,7,2,15,0.03
2013-6-24,97.9,82.0,70.7,74.0,70.1,67.0,95,71,37,29.89,29.73,8,1,12,0.02
2013-6-25,94.1,79.6,67.6,73.0,70.1,67.0,96,76,44,29.80,29.60,9,2,14,0.03
2013-6-26,85.4,73.7,68.3,75.0,70.6,67.0,98,90,68,29.73,29.60,7,1,12,0.02
2013-6-27,71.8,66.9,63.1,68.0,64.8,62.0,96,92,86,29.75,29.65,5,1,8,0.02
2013-6-28,76.9,67.1,58.6,75.0,65.6,57.0,98,95,88,29.65,29.36,6,1,13,0.02
2013-6-29,88.0,76.7,69.6,73.0,69.8,67.0,98,81,52,29.58,29.39,10,2,16,0.02
2013-6-30,89.8,78.2,66.1,74.0,70.1,65.0,98,78,55,29.80,29.58,9,2,14,0.02
2013-7-1,81.2,74.5,70.6,75.0,71.9,69.0,98,92,77,29.95,29.80,3,0,6,0.83
2013-7-2,85.0,72.6,62.5,78.0,70.1,61.0,99,92,73,30.10,29.94,6,1,11,0.02
2013-7-3,91.9,76.6,62.4,76.0,69.4,61.0,96,80,57,30.10,29.99,7,1,13,0.00
2013-7-4,97.7,83.8,71.6,77.0,73.7,70.0,98,74,46,30.07,29.95,7,2,14,0.12
2013-7-5,98.1,85.9,73.9,78.0,74.4,72.0,96,71,47,30.02,29.89,10,2,13,0.19
2013-7-6,92.4,81.9,72.1,76.0,71.6,64.0,95,73,49,29.95,29.85,10,2,13,0.41
2013-7-7,95.7,80.4,66.6,78.0,70.6,65.0,94,74,49,29.90,29.77,6,1,9,0.19
2013-7-8,90.6,77.5,68.0,77.0,72.3,66.0,94,84,59,29.95,29.78,7,2,10,0.24
2013-7-9,75.3,69.9,66.0,70.0,66.8,64.0,94,90,82,29.99,29.93,3,1,6,0.00
2013-7-10,84.3,73.0,66.9,78.0,70.8,65.0,97,93,76,29.96,29.66,3,0,7,0.60
2013-7-11,86.9,75.7,69.8,77.0,72.9,68.0,99,92,66,29.81,29.64,5,0,11,0.13
2013-7-12,84.2,73.5,65.1,67.0,62.9,58.0,96,72,43,30.09,29.82,7,2,14,0.00
2013-7-13,84.2,73.2,65.2,73.0,66.9,61.0,95,81,64,30.19,30.09,4,1,8,0.00
2013-7-14,93.5,80.6,69.9,79.0,72.9,69.0,97,80,48,30.18,30.08,6,1,10,0.19
2013-7-15,97.1,81.6,68.8,78.0,72.3,68.0,98,77,45,30.08,29.96,6,1,11,0.49
2013-7-16,98.7,82.2,67.2,76.0,71.3,66.0,98,73,39,30.04,29.98,7,2,13,0.48
2013-7-17,100.0,84.4,70.0,76.0,72.5,69.0,98,71,39,30.05,29.84,7,1,12,0.58
2013-7-18,100.1,84.3,74.3,81.0,74.4,71.0,96,74,43,29.88,29.80,5,1,9,0.56
2013-7-19,100.3,85.9,72.1,78.0,74.2,71.0,98,71,42,29.81,29.57,10,2,16,0.59
2013-7-20,96.3,82.9,72.9,77.0,70.2,64.0,88,67,47,29.68,29.52,8,1,16,0.47
2013-7-21,87.1,75.5,64.9,73.0,67.0,63.0,97,76,51,29.87,29.69,6,1,10,0.21
2013-7-22,88.0,73.8,67.1,75.0,68.6,65.0,96,84,58,29.91,29.78,8,2,11,0.00
2013-7-23,80.4,71.8,68.5,76.0,70.1,67.0,98,94,85,29.77,29.42,6,1,6,0.39
2013-7-24,89.3,76.7,63.8,73.0,67.1,53.0,99,74,50,29.86,29.46,10,2,15,0.00
2013-7-25,70.3,63.1,58.9,61.0,55.3,49.0,95,76,60,30.00,29.87,7,2,12,0.01
2013-7-26,73.6,66.4,61.8,71.0,64.3,60.0,97,92,83,29.96,29.82,6,2,14,0.07
2013-7-27,90.4,73.8,58.2,69.0,63.0,57.0,99,73,38,29.93,29.86,8,1,10,0.00
2013-7-28,86.8,72.4,64.1,74.0,67.5,63.0,96,85,62,29.90,29.85,7,1,10,0.34
2013-7-29,91.0,73.9,67.1,74.0,69.0,66.0,98,86,49,29.92,29.83,5,1,10,0.52
2013-7-30,88.4,72.4,59.8,68.0,62.4,55.0,97,75,38,29.98,29.91,8,1,11,0.51
2013-7-31,88.5,72.6,58.9,70.0,62.6,58.0,98,75,39,30.02,29.91,6,1,8,0.53
2013-8-1,87.5,69.1,59.5,69.0,63.5,58.0,98,84,48,29.93,29.76,4,1,13,0.48
2013-8-2,90.1,74.0,65.0,72.0,64.0,57.0,98,75,39,29.75,29.66,7,1,14,0.56
2013-8-3,84.3,71.9,61.9,65.0,60.5,54.0,94,70,39,29.74,29.64,13,2,15,0.00
2013-8-4,84.1,68.6,56.6,64.0,59.3,55.0,96,75,44,29.77,29.65,7,1,16,0.21
2013-8-5,81.3,65.3,53.6,55.0,50.9,42.0,94,65,27,29.94,29.77,13,2,14,0.00
2013-8-6,84.5,66.5,49.7,61.0,53.9,48.0,96,68,33,30.03,29.94,5,1,7,0.00
2013-8-7,87.1,69.3,54.2,65.0,56.6,52.0,97,69,32,30.07,29.97,6,1,13,0.24
2013-8-8,86.3,74.5,64.4,73.0,67.1,59.0,94,78,61,29.99,29.87,7,2,11,0.05
2013-8-9,75.1,73.0,70.1,74.0,71.4,69.0,98,94,87,29.89,29.61,6,1,11,1.66
2013-8-10,87.8,74.1,62.1,69.0,63.5,55.0,99,74,36,29.90,29.66,8,1,12,0.01
2013-8-11,86.4,69.8,53.0,62.0,57.3,52.0,98,69,35,29.96,29.87,5,1,12,0.01
2013-8-12,89.1,71.4,57.1,64.0,59.5,56.0,98,71,36,29.91,29.79,5,1,8,0.05
2013-8-13,75.5,68.6,63.6,70.0,65.9,62.0,97,91,78,29.80,29.56,5,0,6,0.10
2013-8-14,80.5,67.9,58.4,64.0,56.1,52.0,97,69,41,29.83,29.55,7,2,17,0.05
2013-8-15,82.4,65.6,50.2,57.0,53.1,49.0,98,69,36,29.99,29.84,5,1,11,0.03
2013-8-16,86.7,67.7,51.9,64.0,55.7,50.0,97,70,33,30.07,29.98,4,1,11,0.00
2013-8-17,89.3,69.2,53.6,68.0,59.8,52.0,97,76,37,30.16,30.08,5,1,8,0.28
2013-8-18,86.6,69.7,56.9,68.0,62.0,56.0,98,79,42,30.16,29.96,5,1,9,0.24
2013-8-19,89.5,75.5,58.2,68.0,63.1,57.0,98,68,43,29.96,29.82,7,1,12,0.24
2013-8-20,92.5,74.5,59.8,69.0,64.3,59.0,98,75,37,29.97,29.86,4,1,8,0.17
2013-8-21,95.1,76.5,60.3,71.0,64.5,59.0,98,71,37,30.02,29.90,5,1,9,0.00
2013-8-22,93.2,77.7,62.8,73.0,67.1,62.0,96,73,42,29.91,29.69,9,2,12,0.28
2013-8-23,86.6,74.1,60.5,69.0,59.7,51.0,89,64,37,30.02,29.70,9,2,15,0.24
2013-8-24,86.4,67.1,51.3,61.0,53.3,49.0,95,67,30,30.21,30.03,7,1,9,0.22
2013-8-25,87.7,68.6,50.1,63.0,54.8,49.0,98,67,28,30.25,30.05,8,1,13,0.22
2013-8-26,85.1,72.8,63.2,69.0,64.5,57.0,95,76,55,30.05,29.74,9,1,13,0.10
2013-8-27,92.3,77.8,68.2,72.0,68.2,65.0,94,75,43,29.78,29.70,6,1,9,0.00
2013-8-28,95.0,76.3,62.9,72.0,66.7,61.0,97,75,43,29.87,29.72,8,1,11,0.00
2013-8-29,69.4,66.4,63.5,66.0,63.2,60.0,95,89,82,29.97,29.84,10,2,12,0.01
2013-8-30,91.1,73.5,59.3,69.0,64.2,58.0,96,76,44,29.91,29.68,6,1,12,0.17
2013-8-31,82.5,73.9,67.8,76.0,71.3,66.0,98,91,79,29.71,29.64,4,1,7,0.45
2013-9-1,90.4,77.8,70.2,75.0,72.2,69.0,97,84,56,29.75,29.66,8,1,9,0.01
2013-9-2,81.4,75.1,72.1,77.0,73.0,70.0,98,93,85,29.74,29.58,5,1,9,1.45
2013-9-3,85.9,71.7,60.2,73.0,67.7,58.0,99,88,62,29.69,29.57,3,0,9,0.02
2013-9-4,88.1,69.7,55.7,63.0,57.8,55.0,98,71,33,29.79,29.68,7,1,12,0.00
2013-9-5,77.0,64.2,50.2,61.0,53.4,43.0,95,72,34,30.04,29.73,8,1,14,0.00
2013-9-6,77.9,59.0,43.2,50.0,45.6,41.0,96,67,29,30.14,29.97,5,1,11,0.00
2013-9-7,88.4,65.4,47.6,63.0,52.8,46.0,95,69,27,29.96,29.73,6,1,11,0.01
2013-9-8,78.2,65.4,50.1,63.0,52.4,42.0,91,65,35,29.98,29.63,14,2,21,0.00
2013-9-9,77.1,57.8,41.6,51.0,45.5,40.0,97,68,33,30.12,29.98,8,1,11,0.00
2013-9-10,78.1,66.3,54.6,72.0,63.0,50.0,97,89,80,30.03,29.90,5,1,12,0.15
2013-9-11,100.3,81.8,67.2,77.0,72.0,66.0,99,76,43,29.93,29.80,9,2,14,0.05
2013-9-12,86.2,73.1,67.1,76.0,70.4,66.0,98,91,71,29.82,29.54,9,1,10,1.09
2013-9-13,79.1,68.7,59.2,72.0,64.3,54.0,99,86,64,29.65,29.45,9,1,15,0.04
2013-9-14,71.5,61.4,51.5,57.0,53.9,50.0,94,77,57,29.94,29.65,5,1,11,0.00
2013-9-15,77.6,60.2,45.6,55.0,50.4,45.0,98,74,38,30.04,29.92,5,1,8,0.00
2013-9-16,69.1,59.1,51.2,60.0,52.6,41.0,95,80,60,30.09,29.88,13,2,15,0.02
2013-9-29,72.0,56.4,47.0,52.0,49.0,44.0,90,78,44,30.03,30.01,1,0,5,0.00
2013-9-30,78.5,57.1,44.7,57.0,49.5,43.0,96,79,40,30.02,29.85,4,0,8,0.00
2013-10-1,84.3,60.8,43.2,60.0,51.4,42.0,98,76,36,29.86,29.73,10,1,12,0.00
2013-10-2,86.3,65.8,49.0,63.0,56.5,48.0,98,76,43,29.83,29.71,7,1,14,0.00
2013-10-3,86.3,63.4,48.3,57.0,52.2,47.0,98,73,28,29.97,29.83,4,0,9,0.00
2013-10-4,63.2,57.5,50.4,60.0,55.5,49.0,97,93,87,29.98,29.92,3,0,4,0.05
2013-10-5,73.7,62.9,56.9,60.0,57.6,55.0,97,84,60,30.01,29.94,5,1,7,0.00
2013-10-6,61.1,55.9,53.2,58.0,54.2,51.0,97,94,87,30.14,30.00,6,1,10,0.05
2013-10-7,79.5,63.7,55.7,71.0,61.5,55.0,99,93,70,30.03,29.66,14,2,21,0.29
2013-10-8,72.6,56.5,43.9,58.0,47.0,41.0,98,75,35,30.27,29.79,10,1,14,0.01
2013-10-9,69.9,50.9,38.7,49.0,43.4,37.0,96,78,45,30.38,30.27,7,1,10,0.00
2013-10-10,64.5,51.6,41.1,54.0,47.2,40.0,96,86,64,30.27,30.09,4,1,6,0.00
2013-10-11,79.6,57.9,46.0,54.0,48.1,39.0,97,75,25,30.08,29.99,6,1,9,0.00
2013-10-12,57.6,52.9,46.2,55.0,51.2,45.0,98,94,90,30.30,30.05,7,2,11,0.00
2013-10-13,64.2,51.1,42.5,55.0,46.9,41.0,97,86,61,30.35,30.28,6,1,7,0.00
2013-10-14,74.1,53.3,39.6,52.0,44.4,38.0,97,76,32,30.30,30.13,4,0,8,0.00
2013-10-15,71.2,58.0,52.0,56.0,52.4,49.0,93,82,54,30.16,30.07,5,1,9,0.00
2013-10-16,63.4,55.7,49.4,54.0,51.7,48.0,97,87,64,30.07,29.80,3,0,5,0.00
2013-10-17,80.1,59.4,46.8,62.0,50.8,46.0,98,78,32,29.80,29.59,8,1,13,0.00
2013-10-18,72.7,60.8,48.2,61.0,50.4,40.0,97,72,39,29.78,29.48,9,2,17,0.02
2013-10-19,72.7,54.6,38.8,48.0,42.7,37.0,97,68,36,29.86,29.62,8,1,10,0.00
2013-10-20,67.6,53.7,40.2,50.0,41.1,36.0,96,66,35,29.90,29.57,14,2,15,0.00
2013-10-21,73.0,50.8,34.2,46.0,39.7,33.0,96,71,34,30.00,29.87,8,1,13,0.00
2013-10-22,63.0,51.7,42.3,53.0,45.2,38.0,97,79,61,29.86,29.59,5,1,13,0.00
2013-10-23,55.5,45.0,33.7,40.0,36.3,32.0,96,74,49,29.68,29.48,3,0,5,0.00
2013-10-24,56.6,45.9,35.7,38.0,32.0,27.0,86,61,37,29.77,29.54,10,2,17,0.00
2013-10-25,53.4,40.9,30.8,37.0,30.5,27.0,95,69,41,30.04,29.78,6,1,12,0.00
2013-10-26,57.2,42.3,27.7,37.0,29.7,26.0,97,66,33,30.04,29.76,14,2,17,0.00
2013-10-27,57.2,48.7,37.9,39.0,33.9,29.0,77,58,39,29.94,29.68,8,2,16,0.00
2013-10-28,62.3,44.1,30.7,38.0,31.7,25.0,95,65,38,30.25,29.94,10,2,20,0.00
2013-10-29,55.8,36.6,24.9,30.0,23.9,19.0,91,65,28,30.36,30.25,5,1,9,0.00
2013-10-30,56.6,38.9,29.3,39.0,32.3,24.0,92,78,50,30.26,30.09,4,0,7,0.00
2013-10-31,59.8,43.6,30.1,59.0,42.0,29.0,98,94,87,30.14,29.67,7,0,13,0.11
2013-11-1,70.0,63.5,53.2,64.0,58.0,51.0,96,83,61,29.65,29.30,13,4,29,0.07
2013-11-2,72.4,54.6,40.5,51.0,45.2,39.0,98,75,34,29.62,29.47,4,1,9,0.01
2013-11-3,50.5,41.5,30.7,45.0,28.3,16.0,93,62,34,30.33,29.62,9,3,14,0.01
2013-11-4,49.5,32.9,22.4,23.0,20.2,17.0,89,63,32,30.61,30.33,7,1,10,0.00
2013-11-5,55.9,37.4,24.0,34.0,27.7,21.0,90,71,39,30.62,30.40,7,1,10,0.00
2013-11-6,65.6,50.5,36.9,48.0,41.3,33.0,90,73,46,30.40,29.90,8,2,16,0.00
2013-11-7,64.2,53.5,39.3,57.0,48.3,31.0,94,83,69,29.91,29.56,9,2,17,0.04
2013-11-8,51.3,40.3,31.1,35.0,27.3,22.0,78,61,42,29.97,29.70,11,2,22,0.00
2013-11-9,46.5,39.7,30.1,30.0,24.9,22.0,73,57,42,30.11,29.91,7,1,13,0.00
2013-11-10,54.0,44.9,38.5,46.0,36.5,30.0,96,74,57,29.91,29.62,10,2,15,0.03
2013-11-11,56.6,46.1,38.6,33.0,29.0,24.0,67,53,33,29.99,29.73,8,2,17,0.00
2013-11-12,48.2,36.1,27.4,38.0,24.5,17.0,84,63,53,30.07,29.76,7,2,19,0.01
2013-11-13,41.8,29.8,22.6,19.0,15.5,12.0,76,57,35,30.20,30.04,9,1,14,0.00
2013-11-14,58.1,39.7,28.3,29.0,23.2,17.0,78,54,32,30.04,29.92,8,1,14,0.00
2013-11-15,61.7,40.3,26.9,30.0,24.3,19.0,89,60,19,30.08,29.98,6,1,14,0.00
2013-11-16,62.5,41.8,31.7,34.0,30.4,27.0,88,67,32,30.21,30.07,3,0,7,0.00
2013-11-17,46.7,39.2,29.6,45.0,36.7,27.0,96,90,86,30.22,29.74,3,0,4,0.01
2013-11-18,68.5,55.3,45.8,60.0,45.7,32.0,98,73,39,29.73,29.40,12,2,20,0.22
2013-11-19,48.2,39.7,31.7,32.0,23.0,16.0,60,52,38,30.19,29.54,10,3,21,0.00
2013-11-20,44.6,32.8,23.1,23.0,17.3,15.0,79,55,33,30.53,30.18,10,2,17,0.00
2013-11-21,52.1,33.6,18.7,30.0,21.4,16.0,90,66,24,30.55,30.26,5,1,12,0.00
2013-11-22,44.0,40.5,35.5,43.0,38.4,29.0,97,92,77,30.25,29.70,2,0,4,0.08
2013-11-23,46.7,38.8,30.1,43.0,27.3,11.0,98,65,43,29.82,29.67,12,2,18,0.00
2013-11-24,29.9,25.1,20.4,19.0,6.7,-1.0,79,47,30,30.08,29.68,13,4,29,0.00
2013-11-25,37.2,26.1,16.3,16.0,4.2,-4.0,55,40,21,30.27,30.09,8,2,15,0.00
2013-11-26,37.9,34.0,30.1,33.0,24.3,15.0,94,69,48,30.23,29.96,6,1,8,0.07
2013-11-27,57.8,46.4,34.4,57.0,45.1,33.0,98,95,86,29.95,29.13,6,1,15,1.06
2013-11-28,38.2,31.3,22.4,34.0,17.4,7.0,83,58,35,30.32,29.34,15,3,22,0.00
2013-11-29,35.1,25.2,16.9,17.0,12.4,8.0,87,61,33,30.65,30.32,7,1,13,0.00
2013-11-30,36.8,24.0,12.1,22.0,15.2,9.0,87,70,46,30.72,30.33,5,1,9,0.00
2013-12-1,36.0,33.7,30.5,35.0,30.2,22.0,96,87,71,30.32,29.92,3,1,6,0.04
2013-12-2,40.1,37.5,36.0,39.0,36.3,35.0,96,95,94,29.91,29.82,3,0,5,0.00
2013-12-3,48.9,39.3,29.2,42.0,34.7,27.0,97,84,58,29.84,29.74,6,1,8,0.00
2013-12-4,43.6,33.1,25.8,31.0,27.5,24.0,95,81,55,30.10,29.84,7,0,9,0.00
2013-12-5,39.1,35.9,27.8,38.0,34.1,26.0,97,93,86,30.11,29.80,2,0,4,0.01
2013-12-6,48.2,42.3,34.3,46.0,38.5,31.0,98,87,56,30.06,29.74,4,0,9,0.10
2013-12-7,44.7,33.3,23.5,37.0,28.5,20.0,96,83,58,30.35,29.98,7,1,13,0.09
2013-12-8,32.1,26.9,19.5,23.0,20.8,17.0,93,78,61,30.49,30.35,3,0,8,0.00
2013-12-9,35.0,31.6,26.8,34.0,29.1,20.0,96,90,68,30.40,29.78,3,1,6,0.05
2013-12-10,36.0,31.8,24.1,33.0,28.2,15.0,97,86,67,29.88,29.68,6,1,11,0.02
2013-12-11,33.6,25.0,18.1,20.0,17.2,15.0,90,73,52,30.08,29.89,11,2,20,0.00
2013-12-12,29.2,19.2,12.6,19.0,9.0,3.0,93,67,39,30.17,29.95,7,1,13,0.00
2013-12-13,30.8,20.8,13.2,21.0,11.6,2.0,78,68,57,30.31,29.88,11,3,17,0.00
2013-12-14,18.6,14.3,9.9,14.0,4.6,-1.0,88,66,51,30.53,30.12,9,3,13,0.00
2013-12-15,31.1,23.1,17.0,27.0,20.1,14.0,92,88,81,30.09,29.35,13,3,15,0.00
2013-12-16,31.0,22.0,9.0,18.0,11.6,5.0,91,66,43,30.10,29.62,9,2,22,0.00
2013-12-17,16.4,9.7,-2.9,14.0,5.4,-7.0,88,82,64,30.19,29.90,7,2,15,0.00
2013-12-18,37.1,26.2,16.1,25.0,19.9,13.0,88,78,61,29.95,29.79,10,2,13,0.00
2013-12-19,43.1,31.8,26.3,27.0,24.3,21.0,88,75,51,30.00,29.84,13,2,16,0.02
2013-12-20,46.0,35.6,28.8,35.0,31.0,26.0,92,84,64,30.01,29.79,4,0,5,0.18
2013-12-21,55.4,40.7,32.5,45.0,37.1,31.0,95,87,69,29.84,29.72,3,0,5,0.21
2013-12-22,41.9,36.4,33.8,41.0,35.3,33.0,97,95,93,29.93,29.70,8,1,12,0.03
2013-12-23,35.5,34.2,32.7,35.0,33.4,32.0,97,96,95,29.99,29.86,4,1,7,0.25
2013-12-24,35.6,32.1,26.1,35.0,22.6,13.0,97,69,55,30.09,29.95,8,2,13,0.00
2013-12-25,26.2,19.5,13.0,16.0,7.6,2.0,76,60,47,30.44,30.10,9,2,17,0.00
2013-12-26,27.1,21.2,15.5,24.0,16.8,11.0,93,83,71,30.40,29.99,3,0,6,0.00
2013-12-27,36.4,24.4,11.9,23.0,18.1,9.0,96,78,55,30.16,30.08,6,1,16,0.02
2013-12-28,48.4,32.5,19.3,31.0,25.5,17.0,93,77,50,30.10,29.87,9,1,14,0.00
2013-12-29,38.4,33.1,27.0,36.0,30.6,25.0,96,90,79,29.91,29.37,7,1,12,0.17
2013-12-30,41.8,32.1,17.0,36.0,24.3,8.0,97,75,52,30.08,29.41,11,2,22,0.01
2013-12-31,25.9,18.6,11.4,15.0,7.6,1.0,79,63,46,30.07,29.92,4,1,8,0.00
2014-1-1,27.7,20.1,13.4,14.0,9.8,7.0,84,66,44,30.29,30.07,13,2,15,0.00
2014-1-2,19.6,12.3,3.3,16.0,8.0,-1.0,86,83,78,30.26,29.81,11,5,22,0.00